sat.trackr.live / text

‹ back to catalog

STARLINK-34354

NORAD 64314 · 2025-123Z

PAYLOAD ACTIVE UNKNOWN

§ Identity

Operator
Country
US
Launch date
2025-06-08
Launch site
AFWTR
Launch vehicle
Mass (kg)
RCS (m²)

Purposes: comms

External: N2YO · Heavens-Above · Gunter

§ Orbital elements

Epoch: 2026-09-20T13:51:59.620032Z

Period
94.14 min
Inclination
69.9996°
Eccentricity
0.0003289
Mean motion
15.29589410 rev/d
Perigee alt
474.8 km
Apogee alt
479.3 km
Semi-major
6,855.2 km
B*
3.8283e-4
RAAN
60.9720°
Arg perigee
248.4554°
Mean anomaly
111.6270°
Rev number
7,086

§ Raw data

STARLINK-343541 64314U 25123Z   26263.57777338  .00010896  00000+0  38283-3 0  99972 64314  69.9996  60.9720 0003289 248.4554 111.6270 15.29589410 70869

JSON: /api/v1/satellites/64314 · /tle

For live sub-satellite position, see the globe view (requires WebGL).

§ Visibility from observer

Set your observer location to see the next 7 days of passes ≥ 10°. The values pass through the URL so the page stays shareable.

No JS? Fill the form by hand. The geolocation button needs JavaScript.